Weather in Nozhkino

Russia / Saratov Oblast     52°22′28″N   45°36′45″E
temp.,
°C
wind,
m/s
gust,
m/s
humid.,
%
clouds,
%
prec.,
mm/h
press.,
hPa
HPBL,
m
24 july, sat
sat2401:00+15w22680 0.0 100822
04:00+14w33745 0.0 100931
07:00+16wsw256819 0.0 1009142
10:00+21wnw35535 0.0 1009994
13:00+23wnw664593 0.1 10092234
16:00+22nw454987 0.0 10101579
19:00+20n365894 0.0 1012366
22:00+18n355957 0.0 1014131
25 july, sun
sun2501:00+14n34733 0.0 101658
04:00+13ne33783 0.0 101734
07:00+15nne23753 0.0 1019124
10:00+20ne33545 0.0 1020865
13:00+23n234198 0.0 10202527
16:00+21n334789 0.0 10211009
19:00+20nne335272 0.0 1021599
22:00+16nne226582 0.0 102221
26 july, mon
mon2601:00+17n1159100 0.0 102313
04:00+16nne2365100 0.0 102459
07:00+16nne247166 0.0 1024116
10:00+20ne235294 0.0 1024658
13:00+23n233664 0.0 10242265
16:00+23n3336100 0.0 10232008
19:00+21n2448100 0.0 1023141
22:00+18ne235074 0.0 102350
27 july, tue
tue2701:00+14nne11630 0.0 102410
04:00+13nnw11641 0.0 102410
07:00+16nw22605 0.0 102483
10:00+22nw33435 0.0 1023800
13:00+25nnw443515 0.0 10222431
16:00+25n45347 0.0 10212384
19:00+24nnw46444 0.0 1020373
22:00+19nw33552 0.0 102121
28 july, wed
wed2801:00+17nw225993 0.0 102122
04:00+16nw23645 0.0 102024
07:00+18wnw24625 0.0 1020111
10:00+24nw35434 0.0 1019767
13:00+27nnw453699 0.0 10182845
16:00+26wnw354076 0.1 10171733
19:00+26nnw354530 0.0 1016363
22:00+20nnw11545 0.0 101611